This is the latest recevied weather packets stored in our database for station/object K7KAZ. If no packets are shown the sender has not sent any weather packets the latest 10 day(s).
| Time | Temp. | Humidity | Pressure | Rain* | Wind** | Luminosity | Snow |
|---|---|---|---|---|---|---|---|
| 1777777178 | 29.44° C | 20% | 1012.7 hPa | 0 mm | - | 0 W/m² | - |
| 1777776874 | 29.44° C | 20% | 1012.4 hPa | 0 mm | - | 0 W/m² | - |
| 1777776573 | 29.44° C | 20% | 1012.5 hPa | 0 mm | - | 0 W/m² | - |
| 1777776268 | 30° C | 19% | 1012.4 hPa | 0 mm | - | 0 W/m² | - |
| 1777775966 | 30° C | 19% | 1012.5 hPa | 0 mm | - | 0 W/m² | - |
| 1777775663 | 30° C | 19% | 1012.4 hPa | 0 mm | - | 0 W/m² | - |
| 1777775359 | 30° C | 19% | 1012.5 hPa | 0 mm | - | 0 W/m² | - |
| 1777775054 | 30° C | 19% | 1012.3 hPa | 0 mm | - | 0 W/m² | - |
| 1777774750 | 30.56° C | 19% | 1012.4 hPa | 0 mm | - | 0 W/m² | - |
| 1777774447 | 30.56° C | 19% | 1012.3 hPa | 0 mm | - | 0 W/m² | - |
| 1777774144 | 30.56° C | 18% | 1012.3 hPa | 0 mm | - | 1 W/m² | - |
| 1777773842 | 30.56° C | 18% | 1012.4 hPa | 0 mm | - | 5 W/m² | - |
| 1777773538 | 30.56° C | 18% | 1012.4 hPa | 0 mm | - | 7 W/m² | - |
| 1777773235 | 30.56° C | 18% | 1012.3 hPa | 0 mm | - | 11 W/m² | - |
| 1777772930 | 30.56° C | 18% | 1012.5 hPa | 0 mm | - | 16 W/m² | - |
| 1777772629 | 30.56° C | 18% | 1012.5 hPa | 0 mm | - | 22 W/m² | - |
| 1777772326 | 31.11° C | 18% | 1012.3 hPa | 0 mm | - | 26 W/m² | - |
| 1777772023 | 31.11° C | 18% | 1012.5 hPa | 0 mm | - | 34 W/m² | - |
| 1777771720 | 31.11° C | 19% | 1012.5 hPa | 0 mm | - | 42 W/m² | - |
| 1777771418 | 31.11° C | 19% | 1012.5 hPa | 0 mm | - | 50 W/m² | - |
| 1777771115 | 31.11° C | 18% | 1012.6 hPa | 0 mm | - | 65 W/m² | - |
| 1777770811 | 31.11° C | 18% | 1012.6 hPa | 0 mm | - | 78 W/m² | - |
| 1777770508 | 31.67° C | 18% | 1012.4 hPa | 0 mm | - | 87 W/m² | - |
| 1777770205 | 31.67° C | 18% | 1012.5 hPa | 0 mm | - | 95 W/m² | - |
| 1777769901 | 31.11° C | 18% | 1012.5 hPa | 0 mm | - | 110 W/m² | - |
* Rain latest hour (hover to see other rain measurements)
** Current wind speed in m/s (hover to see current wind gust speed)